Regional Weather Roundup
Issued by NWS

Home | Current Version | Previous Version | Graphics & Text | Print | Product List | Glossary On
Versions: 1 2 3 4 5 6 7 8 9 10 11 12 13 14 15 16 17 18 19 20 21 22 23 24 25 26 27 28 29 30 31 32 33 34 35 36 37 38 39 40 41 42 43 44 45 46 47 48 49 50
000
ASUS45 KABQ 260201
RWRNM
NEW MEXICO REGIONAL WEATHER ROUNDUP
NATIONAL WEATHER SERVICE ALBUQUERQUE NM
800 PM MDT WED MAY 25 2016

NOTE: "FAIR" MEANS FEW OR NO CLOUDS BELOW 12,000 FEET AGL WITH NO
       SIGNIFICANT WEATHER OR OBSTRUCTIONS TO VISION.

      THIS PRODUCT IS RELEASED AS TWO VERSIONS.  ONE VERSION NEAR
      THE TOP OF THE HOUR CONTAINING PRELIMINARY DATA FROM ALBUQUERQUE
      AND OTHER STATIONS.  A FINAL VERSION WITH ADDITIONAL DATA IS
      ISSUED ABOUT 10 MINUTES AFTER THE HOUR.

NMZ501-503-504-510>518-260300-
NORTHWEST PLATEAU/NORTHCENTRAL MOUNTAINS

CITY           SKY/WX    TMP DP  RH WIND       PRES   REMARKS
FARMINGTON     FAIR      68  13  12 W6        29.94S
SANTA FE       FAIR      69  16  13 S7        30.01F
TAOS           CLOUDY    64  12  13 W10G18    30.09R

$$
NMZ402-403-502-505>509-260300-
WESTCENTRAL MOUNTAINS/SOUTHWEST MOUNTAINS

CITY           SKY/WX    TMP DP  RH WIND       PRES   REMARKS
GALLUP         FAIR      65  16  15 W20G26    30.04R
GRANTS         FAIR      69  15  12 SW20G28   30.05R
SILVER CITY      N/A     75  14   9 W15G24    30.04S

$$
NMZ407-409-411-412-260300-
SOUTHERN DESERTS

CITY           SKY/WX    TMP DP  RH WIND       PRES   REMARKS
LORDSBURG      FAIR      79  18  10 SW14G29   29.95S
DEMING         FAIR      81  12   7 SW18G28   29.96S
HOLLOMAN AFB   FAIR      84  11   6 SW12      29.92R
ALAMOGORDO     FAIR      82  16   8 SW9       29.94R
T OR C         FAIR      80  11   7 SW15G24   29.94S

$$
NMZ519>523-260300-
CENTRAL VALLEYS/CENTRAL HIGHLANDS

CITY           SKY/WX    TMP DP  RH WIND       PRES   REMARKS
ALBUQUERQUE    FAIR      77  14   9 SW13      29.95R
DOUBLE EAGLE   MOCLDY    72  14  11 SW17      29.99R
CLINES CORNERS FAIR      63  16  16 SW15      30.07S
BELEN          FAIR      76  13   9 SW13      29.95S
SOCORRO        NOT AVBL

$$
NMZ524>526-539-540-260300-
SOUTHCENTRAL MOUNTAINS

CITY           SKY/WX    TMP DP  RH WIND       PRES   REMARKS
RUIDOSO        NOT AVBL

$$
NMZ527>531-260300-
NORTHEAST HIGHLANDS/NORTHEAST PLAINS

CITY           SKY/WX    TMP DP  RH WIND       PRES   REMARKS
LAS VEGAS      FAIR      62  18  18 SW10      30.07S
RATON          FAIR      66  13  12 W13       29.98R
CLAYTON        FAIR      70  24  17 SW10      29.93S

$$
NMZ532>537-260300-
EASTCENTRAL PLAINS

CITY           SKY/WX    TMP DP  RH WIND       PRES   REMARKS
TUCUMCARI      FAIR      77  17  10 SW10      29.89R
CANNON AFB     FAIR      73  24  15 W9        29.94R
CLOVIS AIRPORT FAIR      73  27  17 SW12      29.95R

$$
NMZ028-029-538-260300-
SOUTHEAST PLAINS

CITY           SKY/WX    TMP DP  RH WIND       PRES   REMARKS
ROSWELL        FAIR      84  22  10 W10       29.90S
ARTESIA        FAIR      84  28  13 SW8       29.90S
CARLSBAD       FAIR      85  25  11 W6        29.87S
HOBBS          FAIR      81  23  12 W7        29.93S


$$



USA.gov is the U.S. government's official web portal to all federal, state and local government web resources and services.